Printer-friendly version

IAU Minor Planet Center

Minor Planet Center

MPEC 2007-J50 : 2007 JG16

The following Minor Planet Electronic Circular may be linked-to from your own Web pages, but must not otherwise be redistributed electronically.


Read MPEC 2007-J49 Read MPEC 2007-J51


M.P.E.C. 2007-J50                                Issued 2007 May 12, 13:54 UT

     The Minor Planet Electronic Circulars contain information on unusual
         minor planets and routine data on comets.  They are published
   on behalf of Commission 20 of the International Astronomical Union by the
          Minor Planet Center, Smithsonian Astrophysical Observatory,
                          Cambridge, MA 02138, U.S.A.

             Prepared using the Tamkin Foundation Computer Network

                              MPC@CFA.HARVARD.EDU
          URL http://www.cfa.harvard.edu/iau/mpc.html  ISSN 1523-6714

                                   2007 JG16

Observations:
     K07J16G* C2007 05 11.39162 16 23 00.34 -15 21 14.5          20.0 V EJ050G96
     K07J16G  C2007 05 11.39822 16 23 02.00 -15 21 00.2          20.0 V EJ050G96
     K07J16G  C2007 05 11.40484 16 23 03.73 -15 20 45.8          19.9 V EJ050G96
     K07J16G  C2007 05 11.41153 16 23 05.42 -15 20 31.3          20.4 V EJ050G96
     K07J16G  C2007 05 11.42155 16 23 07.96 -15 20 09.7          20.0 V EJ050G96
     K07J16G  C2007 05 11.42503 16 23 08.89 -15 20 01.5          20.0 V EJ050G96
     K07J16G  C2007 05 11.42852 16 23 09.78 -15 19 54.0          20.0 V EJ050G96
     K07J16G  C2007 05 11.43198 16 23 10.71 -15 19 47.1                 EJ050G96
     K07J16G  C2007 05 12.29800 16 27 19.39 -14 48 06.4          20.2 R EJ050649
     K07J16G  C2007 05 12.31931 16 27 25.01 -14 47 16.8          19.8 R EJ050649
     K07J16G  C2007 05 12.32286 16 27 25.92 -14 47 08.0          20.5 R EJ050649
     K07J16G  C2007 05 12.34809 16 27 32.74 -14 46 11.9          20.7 R EJ050734
     K07J16G  C2007 05 12.35587 16 27 34.70 -14 45 55.4          21.8 R EJ050734
     K07J16G  C2007 05 12.36161 16 27 37.31 -14 45 36.6          20.1 V EJ050G96
     K07J16G  C2007 05 12.36741 16 27 38.84 -14 45 23.2          20.3 V EJ050G96
     K07J16G  C2007 05 12.37317 16 27 40.37 -14 45 10.3          20.2 V EJ050G96
     K07J16G  C2007 05 12.39155 16 27 44.28 -14 44 32.3          20.8 R EJ050734

Observer details:
649 Powell Observatory, Louisburg.  Observer R. Fredrick.  0.75-m Newtonian
    reflector + CCD.
734 Farpoint Observatory.  Observer D. Tibbets.  0.7-m reflector + CCD.
G96 Mt. Lemmon Survey.  Observer E. C. Beshore.  Measurers E. C. Beshore,
    E. J. Christensen, G. J. Garradd, A. R. Gibbs, A. D. Grauer, R. E. Hill,
    R. A. Kowalski, S. M. Larson, R. H. McNaught.  1.5-m reflector + CCD.

Orbital elements:
2007 JG16                                                Earth MOID = 0.0744 AU
Epoch 2007 Apr. 10.0 TT = JDT 2454200.5                 MPC
M 328.21594              (2000.0)            P               Q
n   0.46874311     Peri.   45.36291     -0.03096091     +0.99825076
a   1.6412678      Node   222.93893     -0.93669851     -0.04656123
e   0.3476266      Incl.    4.24013     -0.34876542     +0.03643448
P   2.10           H   23.9           G   0.15           U   9
Residuals in seconds of arc
070511 G96  0.2-  0.1+    070511 G96  0.1+  0.2+    070512 734  1.1-  1.1-
070511 G96  0.5-  0.1+    070511 G96  0.7+  0.5-    070512 G96  0.2+  0.0
070511 G96  0.2+  0.1+    070512 649  0.1+  0.9-    070512 G96  0.3+  0.2+
070511 G96  0.1-  0.0     070512 649  0.0   0.5+    070512 G96  0.6+  0.0
070511 G96  0.4-  0.3-    070512 649  0.4-  1.3+    070512 734  0.0   0.1-
070511 G96  0.2+  0.3+    070512 734  0.4+  0.2+

Ephemeris:
2007 JG16                a,e,i = 1.64, 0.35, 4                   q = 1.0707
Date    TT    R. A. (2000) Decl.     Delta      r     Elong.  Phase     V
2007 05 10    16 16.68   -16 08.2    0.127    1.131   163.0    15.2    20.5
2007 05 20    17 09.46   -08 51.7    0.0999   1.104   156.9    21.1    20.1
2007 05 30    18 18.08   +01 38.3    0.0865   1.085   144.0    33.4    20.2
2007 06 09    19 31.41   +12 08.8    0.0872   1.073   130.2    46.3    20.5
2007 06 19    20 32.91   +19 01.1    0.0983   1.071   121.6    54.0    21.0
2007 06 29    21 16.40   +22 07.4    0.115    1.077   119.1    55.5    21.4
2007 07 09    21 44.07   +22 47.4    0.133    1.092   121.4    52.6    21.7
2007 07 19    21 59.54   +21 48.5    0.153    1.115   127.0    46.7    21.8
2007 07 29    22 06.42   +19 33.7    0.174    1.145   135.0    38.8    21.9
2007 08 08    22 07.69   +16 20.8    0.198    1.181   144.3    30.0    22.0

Timothy B. Spahr             (C) Copyright 2007 MPC           M.P.E.C. 2007-J50

Read MPEC 2007-J49 Read MPEC 2007-J51


Our Web policy. Index to the CBAT/MPC/ICQ pages.


Valid HTML 4.01!